User: anonymous
Location: Unspecified
(0.0000°N, 0.0000°E)
Time: 08:11:34
(UTC+02:00)
Language:

Cosmos 1538 Rocket - Orbit

View from above orbital plane
View from above orbital plane
View from above satellite
View from above satellite

Ground track
Ground track

The orbit data is extracted from the following two-line orbital elements,

1 14760U 84019B   14241.06913744  .00000228  00000-0  88038-4 0  3948
2 14760 074.0448 198.3771 0029107 308.2330 126.0653 14.35524069596755
Epoch (UTC): 29 August 2014 01:39:33
Eccentricity: 0.0029107
inclination: 74.0448°
perigee height: 752 km
apogee height: 794 km
right ascension of ascending node: 198.3771°
argument of perigee: 308.2330°
revolutions per day: 14.35524069
mean anomaly at epoch: 126.0653°
orbit number at epoch: 59675

The dashed part of the orbit path shows where the satellite is in the earth's shadow,  

DLR